This is the latest recevied weather packets stored in our database for station/object KU9TRY. If no packets are shown the sender has not sent any weather packets the latest 10 day(s).
| Time | Temp. | Humidity | Pressure | Rain* | Wind** | Luminosity | Snow |
|---|---|---|---|---|---|---|---|
| 1787963504 | 25° C | 71% | 1017.8 hPa | 0 mm | - | 0 W/m² | - |
| 1787963199 | 25° C | 69% | 1017.5 hPa | 0 mm | - | 1 W/m² | - |
| 1787962898 | 25.56° C | 67% | 1017.4 hPa | 0 mm | - | 2 W/m² | - |
| 1787962598 | 25.56° C | 68% | 1017.4 hPa | 0 mm | - | 3 W/m² | - |
| 1787962297 | 26.11° C | 66% | 1017.1 hPa | 0 mm | - | 5 W/m² | - |
| 1787961987 | 26.11° C | 65% | 1017.5 hPa | 0 mm | - | 7 W/m² | - |
| 1787961681 | 26.67° C | 64% | 1017.4 hPa | 0 mm | - | 9 W/m² | - |
| 1787961381 | 26.67° C | 60% | 1017.4 hPa | 0 mm | - | 12 W/m² | - |
| 1787961080 | 27.22° C | 59% | 1017.1 hPa | 0 mm | - | 14 W/m² | - |
| 1787960779 | 27.22° C | 59% | 1017.1 hPa | 0 mm | - | 16 W/m² | - |
| 1787960474 | 27.22° C | 58% | 1017 hPa | 0 mm | - | 19 W/m² | - |
| 1787960174 | 27.22° C | 58% | 1017 hPa | 0 mm | - | 21 W/m² | - |
| 1787959869 | 27.22° C | 57% | 1017.2 hPa | 0 mm | - | 22 W/m² | - |
| 1787959564 | 27.22° C | 56% | 1017.1 hPa | 0 mm | - | 24 W/m² | - |
| 1787959264 | 27.22° C | 56% | 1016.9 hPa | 0 mm | - | 26 W/m² | - |
| 1787958963 | 27.22° C | 56% | 1017 hPa | 0 mm | - | 27 W/m² | - |
| 1787958659 | 27.78° C | 56% | 1016.9 hPa | 0 mm | - | 29 W/m² | - |
| 1787958354 | 27.78° C | 55% | 1017.1 hPa | 0 mm | - | 30 W/m² | - |
| 1787958050 | 27.78° C | 54% | 1017.1 hPa | 0 mm | - | 31 W/m² | - |
| 1787957748 | 28.33° C | 56% | 1017 hPa | 0 mm | - | 32 W/m² | - |
| 1787957444 | 28.89° C | 53% | 1017 hPa | 0 mm | - | 33 W/m² | - |
| 1787957143 | 28.33° C | 54% | 1017 hPa | 0 mm | - | 34 W/m² | - |
| 1787956843 | 28.89° C | 54% | 1016.8 hPa | 0 mm | - | 35 W/m² | - |
| 1787956538 | 28.33° C | 54% | 1016.9 hPa | 0 mm | - | 36 W/m² | - |
| 1787956234 | 28.33° C | 55% | 1016.7 hPa | 0 mm | - | 36 W/m² | - |
* Rain latest hour (hover to see other rain measurements)
** Current wind speed in m/s (hover to see current wind gust speed)